Location: Kalberh�ni
(46.4610°N, 7.2453°E)
Time: 02:39:05
(UTC+00:00)

FALCON 9 DEB - Pass Details

Date: 20 June 2021
Orbit: 364 x 379 km, 53.0° (Epoch: 25 July)

Event Time Altitude Azimuth Distance (km) Brightness Sun altitude
Rises 21:52:39 0° 258° (WSW) 2,261 6.9 -16.5°
Reaches altitude 10° 21:54:45 10° 266° (W) 1,412 5.9 -16.7°
Maximum altitude 21:57:47 42° 339° (NNW) 567 4.2 -16.9°
Drops below altitude 10° 22:00:50 10° 52° (NE) 1,420 5.9 -17.1°
Sets 22:02:58 0° 60° (ENE) 2,276 6.9 -17.2°
